[[{"header":{"parameterUnit":"m.s-1","parameterCategory":1,"la1":30.2991,"la2":30.254,"lo1":-89.0895,"lo2":-89.0444,"dy":0.0017,"dx":0.0017,"nx":28,"ny":28,"refTime":"2025-09-11T09:00:00:Z","depth":0,"parameterNumber":2,"parameterNumberName":"U-component_of_WINDS"},"data":[0,0,0,0,0,0,0,0,0,0,0,0,0,0,0,0,0,0,0,0,0,0,0,0,0,0,0,0,0,0,0,0,0,0,0,0,0,0,0,0,0,0,0,0,0,0,0,0,0,0,0,0,0,0,0,0,0,0,-2.3171,-2.317,0,-2.3093,-2.3092,-2.3091,-2.3064,-2.3064,-2.3065,-2.3065,-2.2983,-2.2981,-2.2979,0,0,0,0,0,0,0,0,0,0,0,0,0,-2.3294,-2.3292,-2.3171,-2.317,-2.3169,-2.3093,-2.3092,-2.3091,-2.3064,-2.3064,-2.3065,-2.3065,-2.2984,-2.2981,-2.2978,0,0,0,0,0,0,0,0,0,0,0,0,0,-2.3231,-2.3291,-2.3171,-2.3146,-2.3143,-2.3093,-2.3092,-2.3091,-2.3064,-2.3064,-2.3065,-2.3065,-2.2985,-2.2982,-2.2978,-2.2946,0,0,-2.2967,-2.2965,0,0,0,0,0,0,0,0,-2.3234,-2.3226,-2.3151,-2.3148,-2.3145,-2.3089,-2.3106,-2.3042,-2.3064,-2.3094,-2.3065,-2.3066,-2.3018,-2.3012,-2.2996,-2.2942,-2.2939,-2.2966,-2.2964,-2.2963,-2.2962,0,0,0,0,0,0,0,-2.3239,-2.3229,-2.314,-2.315,-2.3146,-2.3139,-2.313,-2.3094,-2.3054,-2.3091,-2.3089,-2.3081,-2.3016,-2.3,-2.2994,-2.2938,-2.2967,-2.2963,-2.2961,-2.296,-2.2854,-2.2854,0,0,0,0,0,0,-2.3248,-2.3233,-2.3142,-2.3138,-2.3192,-2.3136,-2.3127,-2.3106,-2.3055,-2.3047,-2.308,-2.308,-2.3006,-2.2998,-2.2991,-2.295,-2.2963,-2.2959,-2.2957,-2.2855,-2.2854,-2.2854,0,0,0,0,0,0,-2.325,-2.324,-2.3146,-2.3185,-2.3172,-2.3133,-2.3111,-2.3104,-2.3088,-2.3046,-2.3039,-2.3071,-2.3006,-2.2996,-2.2958,-2.2947,-2.2958,-2.2954,-2.2856,-2.2855,-2.2854,-2.2869,0,0,0,0,0,0,-2.3254,-2.3241,-2.3229,-2.3185,-2.317,-2.3114,-2.311,-2.3103,-2.3082,-2.308,-2.3035,-2.3028,-2.3005,-2.2963,-2.2954,-2.2942,-2.2951,-2.2856,-2.2855,-2.2854,-2.2869,-2.2869,-2.2868,0,0,0,0,0,-2.3259,-2.3236,-2.3228,-2.3218,-2.3155,-2.3114,-2.3105,-2.308,-2.3081,-2.3068,-2.3042,-2.303,-2.295,-2.296,-2.2949,-2.2936,-2.2857,-2.2856,-2.2854,-2.287,-2.2869,-2.2868,0,0,0,0,0,0,-2.3279,-2.323,-2.3221,-2.3183,-2.3153,-2.3109,-2.3092,-2.308,-2.3048,-2.3048,-2.3018,-2.3008,-2.2972,-2.295,-2.2962,-2.2903,-2.2903,-2.2899,-2.2918,-2.2917,-2.2917,-2.2922,-2.2948,0,0,0,0,0,-2.3279,-2.325,-2.3209,-2.318,-2.3165,-2.3131,-2.3113,-2.3096,-2.3063,-2.305,-2.302,-2.2988,-2.2956,-2.2936,-2.2904,-2.2866,-2.2856,-2.2852,-2.2852,-2.2852,-2.2849,-2.2827,-2.2825,-2.2849,-2.2849,-2.2849,0,0,-2.3279,-2.3248,-2.3232,-2.3183,-2.3157,-2.3128,-2.3121,-2.309,-2.3068,-2.3045,-2.3007,-2.2984,-2.2947,-2.2909,-2.2891,-2.289,-2.284,-2.285,-2.285,-2.2847,-2.2826,-2.2823,-2.2821,-2.2848,-2.2849,-2.2849,0,0,-2.3263,-2.3238,-2.3211,-2.3186,-2.3148,-2.3125,-2.3119,-2.3077,-2.3061,-2.3023,-2.3006,-2.2979,-2.2924,-2.2898,-2.2877,-2.2853,-2.284,-2.2843,-2.284,-2.282,-2.2818,-2.2816,-2.2807,-2.2805,-2.2841,-2.2841,-2.2841,0,-2.3268,-2.3223,-2.3198,-2.3168,-2.3147,-2.3126,-2.3098,-2.3075,-2.3028,-2.3014,-2.3013,-2.2944,-2.2917,-2.2873,-2.2867,-2.2852,-2.2843,-2.2848,-2.2821,-2.2818,-2.2816,-2.2807,-2.2804,-2.2841,-2.2841,-2.2841,-2.2841,0,-2.323,-2.32,-2.3183,-2.3139,-2.3116,-2.3087,-2.3057,-2.3036,-2.3022,-2.3,-2.2961,-2.2928,-2.289,-2.2878,-2.2863,-2.2832,-2.2832,-2.2827,-2.2826,-2.2815,-2.2806,-2.2803,-2.2842,-2.2842,-2.2842,-2.2841,0,0,-2.3225,-2.3168,-2.3162,-2.3142,-2.3099,-2.3074,-2.3045,-2.3008,-2.299,-2.2959,-2.2933,-2.2888,-2.2882,-2.2859,-2.2841,-2.2824,-2.2806,-2.282,-2.2819,-2.2819,-2.2769,-2.2774,-2.277,-2.2798,-2.2797,-2.2797,-2.2772,0,-2.3204,-2.315,-2.3127,-2.3084,-2.3056,-2.3036,-2.301,-2.298,-2.2959,-2.2931,-2.2907,-2.2875,-2.2871,-2.2857,-2.2839,-2.2812,-2.2796,-2.2814,-2.2773,-2.2772,-2.2783,-2.2765,-2.2769,-2.2748,-2.2769,-2.2768,-2.2768,0,-2.3171,-2.3141,-2.3095,-2.3056,-2.3043,-2.302,-2.2984,-2.2958,-2.2924,-2.291,-2.2885,-2.2868,-2.2836,-2.2838,-2.2793,-2.2806,-2.2788,-2.2772,-2.2771,-2.2766,-2.2769,-2.2759,-2.2741,-2.2737,-2.2762,-2.2763,-2.2763,0,-2.3172,-2.3119,-2.3085,-2.3069,-2.3022,-2.3006,-2.2986,-2.2952,-2.2932,-2.29,-2.2886,-2.2851,-2.2832,-2.2805,-2.2779,-2.2783,-2.2736,-2.2737,-2.2723,-2.2724,-2.2714,-2.2715,-2.2692,-2.2703,-2.2703,-2.2703,-2.2703,0,-2.315,-2.3123,-2.3085,-2.3064,-2.3033,-2.3006,-2.2976,-2.2954,-2.2925,-2.2899,-2.2879,-2.2855,-2.2823,-2.2794,-2.2774,-2.274,-2.2731,-2.2718,-2.2713,-2.272,-2.2721,-2.2707,-2.2708,-2.2702,-2.2703,-2.2703,-2.2703,0,-2.3145,-2.3118,-2.308,-2.3039,-2.3028,-2.3007,-2.2972,-2.295,-2.2928,-2.2896,-2.2887,-2.2852,-2.2818,-2.279,-2.2745,-2.2731,-2.2695,-2.2689,-2.2707,-2.2704,-2.2692,-2.2694,-2.2659,-2.2653,-2.2669,-2.2669,-2.2669,0,-2.3133,-2.3111,-2.3069,-2.305,-2.303,-2.3001,-2.298,-2.2953,-2.2932,-2.2892,-2.2875,-2.284,-2.281,-2.2756,-2.2727,-2.2692,-2.2685,-2.2676,-2.268,-2.2688,-2.2685,-2.2686,-2.2684,-2.2675,-2.2675,-2.2675,-2.2675,0,-2.3114,-2.3102,-2.3073,-2.3039,-2.3014,-2.2986,-2.2957,-2.2943,-2.2911,-2.2888,-2.2853,-2.283,-2.2785,-2.275,-2.2712,-2.2691,-2.2677,-2.2674,-2.2669,-2.2675,-2.2686,-2.268,-2.2706,-2.2675,-2.2675,-2.2675,-2.2675,-2.2675,-2.3104,-2.3085,-2.3052,-2.302,-2.2996,-2.2969,-2.2947,-2.2923,-2.2894,-2.2855,-2.2841,-2.2805,-2.2772,-2.272,-2.2699,-2.267,-2.2669,-2.2662,-2.266,-2.2658,-2.2659,-2.2692,-2.2663,-2.2663,-2.2663,-2.2663,-2.2663,0,-2.3084,-2.3062,-2.3033,-2.2994,-2.2969,-2.296,-2.2927,-2.2907,-2.2876,-2.2846,-2.2818,-2.2778,-2.2744,-2.2712,-2.2677,-2.266,-2.2653,-2.2652,-2.2652,-2.2647,-2.2663,-2.267,-2.2658,-2.2658,-2.2658,-2.2658,-2.2658,-2.2658,-2.3071,-2.3037,-2.3021,-2.2975,-2.2953,-2.2919,-2.2901,-2.2877,-2.2853,-2.281,-2.2782,-2.2761,-2.2731,-2.2693,-2.2662,-2.2653,-2.2641,-2.2641,-2.2631,-2.2645,-2.2646,-2.2647,-2.2654,-2.2639,-2.2639,-2.2618,-2.2618,-2.2618]},{"header":{"parameterUnit":"m.s-1","parameterCategory":1,"la1":30.2991,"la2":30.254,"lo1":-89.0895,"lo2":-89.0444,"dy":0.0017,"dx":0.0017,"nx":28,"ny":28,"refTime":"2025-09-11T09:00:00:Z","depth":0,"parameterNumber":3,"parameterNumberName":"V-component_of_WINDS"},"data":[0,0,0,0,0,0,0,0,0,0,0,0,0,0,0,0,0,0,0,0,0,0,0,0,0,0,0,0,0,0,0,0,0,0,0,0,0,0,0,0,0,0,0,0,0,0,0,0,0,0,0,0,0,0,0,0,0,0,-1.457,-1.457,0,-1.4598,-1.4599,-1.4599,-1.4619,-1.4619,-1.462,-1.462,-1.4648,-1.4648,-1.4649,0,0,0,0,0,0,0,0,0,0,0,0,0,-1.4535,-1.4535,-1.457,-1.457,-1.4571,-1.4598,-1.4599,-1.4599,-1.4619,-1.4619,-1.462,-1.462,-1.4648,-1.4648,-1.4649,0,0,0,0,0,0,0,0,0,0,0,0,0,-1.4555,-1.4535,-1.457,-1.4584,-1.4586,-1.4598,-1.4599,-1.4599,-1.4619,-1.462,-1.462,-1.462,-1.4647,-1.4648,-1.4649,-1.4649,0,0,-1.4652,-1.4652,0,0,0,0,0,0,0,0,-1.4554,-1.4556,-1.4582,-1.4583,-1.4585,-1.4606,-1.4596,-1.4616,-1.4619,-1.4607,-1.462,-1.462,-1.4634,-1.4636,-1.464,-1.4651,-1.4652,-1.4652,-1.4652,-1.4653,-1.4653,0,0,0,0,0,0,0,-1.4552,-1.4555,-1.4581,-1.4582,-1.4584,-1.4589,-1.4593,-1.46,-1.4618,-1.4608,-1.4609,-1.4612,-1.4634,-1.4639,-1.4641,-1.4652,-1.4652,-1.4653,-1.4653,-1.4654,-1.4666,-1.4666,0,0,0,0,0,0,-1.4549,-1.4554,-1.458,-1.4582,-1.457,-1.459,-1.4593,-1.4599,-1.4618,-1.4621,-1.4612,-1.4613,-1.4638,-1.464,-1.4642,-1.4645,-1.4653,-1.4654,-1.4654,-1.4666,-1.4666,-1.4666,0,0,0,0,0,0,-1.4548,-1.4551,-1.4579,-1.4568,-1.4572,-1.459,-1.4596,-1.4599,-1.4604,-1.4622,-1.4625,-1.4614,-1.4638,-1.4641,-1.4648,-1.4646,-1.4654,-1.4655,-1.4667,-1.4666,-1.4666,-1.465,0,0,0,0,0,0,-1.4547,-1.4551,-1.4551,-1.4568,-1.4573,-1.4584,-1.4596,-1.4599,-1.4606,-1.4607,-1.4624,-1.4627,-1.4638,-1.4646,-1.4649,-1.4648,-1.4655,-1.4667,-1.4667,-1.4666,-1.4651,-1.4649,-1.4648,0,0,0,0,0,-1.4546,-1.4544,-1.455,-1.4553,-1.4573,-1.4584,-1.4587,-1.46,-1.4605,-1.4606,-1.4617,-1.4626,-1.4646,-1.4647,-1.465,-1.4649,-1.4667,-1.4667,-1.4666,-1.4651,-1.4649,-1.4648,0,0,0,0,0,0,-1.4525,-1.4547,-1.4554,-1.4558,-1.4569,-1.4588,-1.4588,-1.4597,-1.4607,-1.4608,-1.4624,-1.4628,-1.4634,-1.4642,-1.4643,-1.4651,-1.4658,-1.4658,-1.4645,-1.4644,-1.4642,-1.464,-1.4656,0,0,0,0,0,-1.4521,-1.4528,-1.4547,-1.4549,-1.4554,-1.457,-1.4575,-1.4585,-1.4597,-1.4602,-1.4613,-1.4625,-1.4634,-1.4639,-1.4648,-1.4652,-1.4656,-1.4653,-1.4651,-1.465,-1.465,-1.4654,-1.4653,-1.4665,-1.4665,-1.4665,0,0,-1.4513,-1.4526,-1.4529,-1.4545,-1.4555,-1.4562,-1.4574,-1.4581,-1.4586,-1.4602,-1.461,-1.462,-1.4633,-1.4639,-1.4642,-1.4646,-1.4648,-1.4649,-1.4648,-1.4649,-1.4654,-1.4653,-1.4652,-1.4664,-1.4664,-1.4664,0,0,-1.4502,-1.4512,-1.4516,-1.4525,-1.454,-1.4551,-1.4552,-1.457,-1.4577,-1.4585,-1.4598,-1.4605,-1.4619,-1.4629,-1.4636,-1.463,-1.464,-1.4633,-1.4625,-1.4629,-1.4628,-1.4628,-1.4627,-1.4626,-1.4633,-1.4633,-1.4633,0,-1.449,-1.4501,-1.4516,-1.4523,-1.453,-1.4546,-1.455,-1.4559,-1.4576,-1.458,-1.4585,-1.4604,-1.4615,-1.4624,-1.4623,-1.4627,-1.463,-1.4631,-1.4627,-1.4627,-1.4626,-1.4626,-1.4625,-1.4632,-1.4632,-1.4632,-1.4632,0,-1.4487,-1.4494,-1.4496,-1.4513,-1.452,-1.4525,-1.4541,-1.4547,-1.4556,-1.4567,-1.4576,-1.4589,-1.4602,-1.4604,-1.4613,-1.4615,-1.4618,-1.4624,-1.4631,-1.4624,-1.4624,-1.4624,-1.4631,-1.4631,-1.4631,-1.4631,0,0,-1.4463,-1.4489,-1.4489,-1.4498,-1.4516,-1.4523,-1.4529,-1.4542,-1.4547,-1.4559,-1.4565,-1.4578,-1.4585,-1.4593,-1.4603,-1.4606,-1.4603,-1.4613,-1.4613,-1.4611,-1.4608,-1.4603,-1.4602,-1.4609,-1.4609,-1.4609,-1.4607,0,-1.4456,-1.4469,-1.4483,-1.4491,-1.4499,-1.4515,-1.4521,-1.4533,-1.4544,-1.4552,-1.4564,-1.4573,-1.4581,-1.4586,-1.459,-1.4602,-1.4602,-1.4602,-1.4616,-1.4616,-1.4612,-1.4602,-1.4597,-1.4594,-1.4607,-1.4607,-1.4607,0,-1.4449,-1.4461,-1.447,-1.4489,-1.4493,-1.4498,-1.4512,-1.452,-1.4534,-1.4542,-1.4551,-1.4562,-1.4571,-1.4577,-1.4589,-1.4589,-1.4595,-1.4602,-1.4603,-1.4605,-1.4611,-1.4605,-1.4594,-1.4594,-1.4606,-1.4607,-1.4607,0,-1.4433,-1.4451,-1.4459,-1.4466,-1.4487,-1.4491,-1.45,-1.4515,-1.4522,-1.4534,-1.454,-1.4552,-1.4559,-1.4569,-1.4584,-1.4586,-1.4595,-1.4602,-1.4602,-1.4602,-1.4603,-1.4603,-1.4594,-1.4606,-1.4606,-1.4606,-1.4606,0,-1.4424,-1.4429,-1.4452,-1.4457,-1.4464,-1.4481,-1.4487,-1.4497,-1.4511,-1.4518,-1.4532,-1.4539,-1.4558,-1.4567,-1.4579,-1.4588,-1.4591,-1.4597,-1.4601,-1.4597,-1.4596,-1.4601,-1.4602,-1.4606,-1.4606,-1.4606,-1.4606,0,-1.4407,-1.4422,-1.4433,-1.4453,-1.4458,-1.4463,-1.448,-1.4486,-1.4498,-1.4508,-1.4511,-1.4529,-1.4541,-1.4557,-1.4573,-1.4581,-1.4589,-1.4593,-1.4584,-1.4586,-1.4586,-1.4586,-1.458,-1.4581,-1.4592,-1.4592,-1.4592,0,-1.4401,-1.4405,-1.4427,-1.4433,-1.4442,-1.4452,-1.446,-1.4477,-1.4485,-1.4502,-1.4506,-1.4519,-1.4531,-1.4549,-1.4564,-1.4577,-1.4582,-1.458,-1.4584,-1.4581,-1.4584,-1.4583,-1.4585,-1.4578,-1.4578,-1.4578,-1.4578,0,-1.4388,-1.4396,-1.4407,-1.4421,-1.4431,-1.4442,-1.4455,-1.4459,-1.4479,-1.4487,-1.45,-1.4508,-1.4526,-1.4539,-1.4555,-1.4564,-1.4575,-1.4576,-1.4577,-1.4574,-1.4569,-1.4572,-1.4582,-1.4576,-1.4577,-1.4577,-1.4577,-1.4577,-1.4377,-1.4383,-1.4399,-1.4411,-1.4423,-1.4434,-1.4441,-1.4454,-1.4465,-1.4481,-1.449,-1.4503,-1.4518,-1.454,-1.455,-1.456,-1.4564,-1.4565,-1.4565,-1.4565,-1.4565,-1.4567,-1.4563,-1.4563,-1.4563,-1.4563,-1.4563,0,-1.4367,-1.4378,-1.439,-1.4407,-1.4417,-1.4426,-1.444,-1.4448,-1.4459,-1.4473,-1.4484,-1.4499,-1.4513,-1.4529,-1.4543,-1.4549,-1.4554,-1.4552,-1.4552,-1.4554,-1.456,-1.4558,-1.4548,-1.4548,-1.4548,-1.4548,-1.4548,-1.4548,-1.4363,-1.4373,-1.4383,-1.4399,-1.441,-1.4423,-1.4431,-1.4442,-1.4453,-1.447,-1.4481,-1.4491,-1.4506,-1.4522,-1.4535,-1.454,-1.4544,-1.4541,-1.4547,-1.4552,-1.4554,-1.4555,-1.4554,-1.4542,-1.4542,-1.4541,-1.4541,-1.4541]}]]